Flag for Gaza Strip Weather past 2 weeks in Khan Yunis, Gaza Strip

Now
57 °F

Clear.


Feels Like: 57 °F
Forecast: 59 / 67 °F
Wind: 5 mph from South

Location: El Arish

Current Time: Feb 28, 2015 at 1:42:35 AM

Latest Report: Feb 28, 2015 at 1:00 AM


Visibility: 10 mi

Pressure: 29.92 "Hg

Humidity: 94%

Dew point: 55 °F

Location of Khan YunisLocation

Historic Weather in Khan Yunis — Graph

°F

Khan Yunis temperature yesterday

Maximum temperature yesterday: 88 °F (at 3:00 PM)
Minimum temperature yesterday: 48 °F (at 6:00 AM)
Average temperature yesterday: 65 °F

Past Weeks' High & Low Weather Summary

 TemperatureHumidityPressure
High88 °F (Feb 27, 3:00 PM)100% (Feb 15, 6:00 PM)30.18 "Hg (Feb 15, 6:00 PM)
Low43 °F (Feb 15, 5:00 AM)28% (Feb 27, 4:00 PM)29.77 "Hg (Feb 24, 8:00 AM)
Average54 °F83%30.00 "Hg
* Reported Midnight between Feb 12 and Feb 13 — Midnight between Feb 27 and Feb 28, Khan Yunis, Weather by CustomWeather, © 2015

Note: Actual official high and low records may vary slightly from our data, if they occured in-between our weather recording intervals... More about our weather records

Advertising

Khan Yunis weather history for previous 24 hours

 ConditionsComfort  
Time TempWeatherWind HumidityBarometerVisibility
12:00 AM
Sat, Feb 28
57 °FClear.5 mph94%29.92 "Hg10 mi
11:00 PM
Fri, Feb 27
57 °FClear.2 mph82%29.92 "Hg10 mi
10:00 PM61 °FClear.No wind72%29.92 "Hg10 mi
9:00 PM61 °FClear.3 mph68%29.92 "Hg10 mi
8:00 PM63 °FClear.2 mph59%29.92 "Hg10 mi
7:00 PM66 °FPassing clouds.No wind56%29.89 "HgN/A
6:00 PM72 °FPassing clouds.No wind47%29.89 "HgN/A
5:00 PM79 °FSunny.5 mph32%29.89 "Hg10 mi
4:00 PM82 °FSunny.9 mph28%29.86 "Hg10 mi
3:00 PM88 °FSunny.6 mph29%29.86 "Hg10 mi
1:00 PM84 °FSunny.8 mph29%29.89 "Hg10 mi
12:00 PM81 °FSunny.8 mph30%29.92 "Hg10 mi
11:00 AM77 °FSunny.10 mph36%29.92 "Hg10 mi
10:00 AM72 °FSunny.8 mph44%29.95 "Hg10 mi
9:00 AM66 °FSunny.5 mph56%29.95 "Hg10 mi
7:00 AM48 °FClear.No wind100%29.95 "Hg4 mi
6:00 AM48 °FClear.No wind100%29.92 "Hg4 mi
5:00 AM52 °FClear.No wind94%29.89 "Hg4 mi
4:00 AM52 °FClear.2 mph100%29.89 "Hg4 mi
3:00 AM52 °FClear.No wind100%29.92 "Hg4 mi
1:00 AM57 °FPassing clouds.2 mph94%29.95 "Hg4 mi
Weather by CustomWeather, © 2015

See weather overviewHow to use our weather pages